Starlink 36858

operational
NORAD ID: 68021 Int'l Des: 2026-040 Owner: SPXS Country: US Constellation: starlink
LEOCIRCULARRETROGRADE

Starlink 36858について

説明を読み込み中...

リアルタイム位置

3D地球を読み込み中...

次回通過

高度履歴

Altitude vs Time

uPlot chart will show altitude changes over time

軌道要素

1 68021C 26040G 26061.10534722 .00618430 00000+0 67504-3 0 614
2 68021 97.2861 8.4888 0009963 258.3478 211.3006 16.09067754 11
Epoch: Mar 2, 2026 • Age: 29 hours

現在のステータス

高度 266.2 km
速度 7.75 km/s
衛星直下点 -69.51°S, 159.06°E
打ち上げ日 Mar 1, 2026
運用期間 1 days
タイプ internet

技術仕様

分類 Payload
質量 575.00 kg
乾燥質量 530.00 kg
総質量 575.00 kg
長さ 0.30 m
直径 4.10 m
スパン 29.00 m
形状 Box + pan
製造者 SPXS
バスタイプ Starlink V2MO
フェーズステータス In Orbit
所有者/国 SPXS/US

大規模コンステレーション

Loading constellations...